Content
SEND FEEDBACK

Daily
Averages
Monthly
Summary
Mexico

CANCUN, QUINTANA ROO


Home > North America > Mexico > Quintana Roo
Elevation: 9 meters     Latitude: 21 09N     Longitude: 086 49W

WEATHER
 
SELECT A DAY
Number of Records: 166,321;   Date Range: 1/1/95 - 10/19/14
 
SHARE

PRINT THIS DATA

[ ← Previous Day ]
WEATHER ALMANAC - 21 JUNE, 2013
[ Next Day → ]
[ °F ]   °C
Weather ElementAverageHighLow
Temperature28.7 °C31 °C (11:42 am)25 °C (6:45 pm)
Dewpoint24.3 °C25 °C (1:44 am)23 °C (4:45 am)
Humidity77.8 %100 % (6:45 pm)66 % (10:40 am)
Barometer1015.9 hPa1016.9 hPa (10:40 am)1014.2 hPa (3:46 am)
Wind Speed11.9 km/h16.7 km/h (11:42 am)
Weather ElementAverage
Visibility11.1 km
Wind DirectionE (90 °)

Weather ElementTotal
Precipitation---
Cooling Degree Days9.7 (Base 18.3)
Growing Degree Days18 (Base 10)
Averaged from 23 records on 21 June, 2013
WEATHER CONDITIONS BREAKOUT
WIND DIRECTION BREAKOUT
WEATHER BY HOUR - 21 JUNE, 2013
[ °F ]   °C
Local TimeTemperatureDewpointHumidityBarometerVisibilityWind DirectionWind SpeedGust SpeedPrecipitationEventsConditions
1:44 AM28 °C25 °C84 %1015.6 hPa11.3 kmENE (70°)11.1 km/hScattered Clouds
2:43 AM27 °C25 °C89 %1015.2 hPa11.3 kmEast (90°)13 km/hPartly Cloudy
3:46 AM27 °C24 °C84 %1014.2 hPa11.3 kmSE (140°)9.3 km/hClear
4:45 AM27 °C23 °C79 %1014.6 hPa11.3 kmEast (80°)9.3 km/hClear
5:44 AM26 °C23 °C83 %1014.9 hPa11.3 kmENE (70°)9.3 km/hPartly Cloudy
6:43 AM27 °C25 °C89 %1015.2 hPa11.3 kmEast (80°)9.3 km/hScattered Clouds
7:43 AM29 °C24 °C74 %1015.9 hPa11.3 kmEast (80°)11.1 km/hScattered Clouds
8:41 AM29 °C24 °C74 %1016.3 hPa11.3 kmESE (110°)13 km/hMostly Cloudy
9:42 AM30 °C24 °C70 %1016.6 hPa11.3 kmESE (110°)13 km/hMostly Cloudy
10:40 AM30 °C23 °C66 %1016.9 hPa11.3 kmEast (90°)14.8 km/hMostly Cloudy
11:42 AM31 °C24 °C66 %1016.9 hPa11.3 kmEast (100°)16.7 km/hMostly Cloudy
12:41 PM30 °C24 °C70 %1016.9 hPa11.3 kmEast (90°)11.1 km/hMostly Cloudy
1:41 PM30 °C24 °C70 %1016.6 hPa11.3 kmEast (80°)9.3 km/hScattered Clouds
2:42 PM31 °C24 °C66 %1016.3 hPa11.3 kmEast (100°)16.7 km/hScattered Clouds
3:40 PM31 °C24 °C66 %1015.9 hPa11.3 kmESE (110°)14.8 km/hScattered Clouds
4:42 PM31 °C24 °C66 %1015.2 hPa11.3 kmEast (80°)14.8 km/hScattered Clouds
5:40 PM30 °C25 °C74 %1015.2 hPa11.3 kmEast (80°)14.8 km/hMostly Cloudy
6:45 PM25 °C25 °C100 %1015.6 hPa11.3 kmEast (80°)13 km/hMostly Cloudy
7:42 PM28 °C25 °C84 %1015.6 hPa11.3 kmEast (80°)7.4 km/hMostly Cloudy
8:40 PM28 °C25 °C84 %1015.9 hPa11.3 kmEast (90°)14.8 km/hScattered Clouds
9:42 PM28 °C25 °C84 %1016.6 hPa9.7 kmEast (90°)9.3 km/hScattered Clouds
10:41 PM28 °C25 °C84 %1016.9 hPa9.7 kmEast (80°)9.3 km/hScattered Clouds
11:41 PM28 °C25 °C84 %1016.9 hPa9.7 kmEast (90°)9.3 km/hScattered Clouds
Hourly data recorded from MMUN, located 0 kilometers away from Cancun, Quintana Roo







STORIES FROM OUR PARTNERS